Simultaneous Nadir Overpasses (SNOs) Predictions

Prediction of SNOs between AQUA and METOP-A Satellite Orbit:

Table of predicted SNOs for the next 14.0 days since TLE Epoch: 3/28/2014
Index Date (AQUA) Time (AQUA) Lat,Lon (AQUA) SZA (AQUA ) Date (METOP-A) Time (METOP-A) Lat,Lon (METOP-A) SZA (METOP-A ) Distance(km) Time Diff (sec)
1 03/30/2014 02:20:43 73.92, 139.06 70.26 03/30/2014 02:20:13 73.94, 139.00 70.29 2.94 30
2 03/30/2014 03:10:10 -73.99, -53.47 109.68 03/30/2014 03:10:54 -73.99, -53.54 109.68 2.05 44
3 04/01/2014 21:05:17 -73.30, 39.18 111.48 04/01/2014 21:04:11 -73.26, 36.50 111.41 86.10 66
4 04/01/2014 21:54:57 73.95,-154.58 69.20 04/01/2014 21:54:37 73.93,-154.62 69.19 2.79 20
5 04/01/2014 22:44:24 -74.02, 12.90 110.74 04/01/2014 22:45:17 -74.04, 12.97 110.73 2.71 53
6 04/04/2014 16:39:39 -73.78, 104.61 112.06 04/04/2014 16:38:27 -73.69, 103.88 112.10 24.62 72
7 04/04/2014 17:29:10 73.97, -88.18 68.14 04/04/2014 17:29:01 73.96, -88.15 68.13 1.36 9
8 04/04/2014 18:18:37 -74.04, 79.31 111.80 04/04/2014 18:19:42 -74.02, 79.33 111.83 2.06 65
9 04/07/2014 12:13:53 -73.93, 170.72 112.96 04/07/2014 12:12:47 -73.91, 170.80 112.97 3.21 66
10 04/07/2014 13:03:21 73.97, -21.72 67.07 04/07/2014 13:03:25 73.98, -21.70 67.08 1.40 4
11 04/07/2014 13:52:51 -74.19, 145.41 112.71 04/07/2014 13:54:03 -74.19, 146.15 112.75 22.33 72
12 04/10/2014 07:48:01 -73.91,-122.77 114.04 04/10/2014 07:47:10 -73.93,-122.77 114.02 1.53 51
13 04/10/2014 08:37:30 74.01, 44.65 66.05 04/10/2014 08:37:48 73.99, 44.73 66.03 2.79 18




NCC Satellite Simultaneous Nadir Overpasses (SNOs) Prediction Service
